Location: Bellerive
(46.9237°N, 7.0223°E)
Time: 13:55:39
(UTC+00:00)

Resurs 01 Rocket - Pass Details

Date: 09 April 2020
Orbit: 635 x 644 km, 98.0° (Epoch: 03 June)

Event Time Altitude Azimuth Distance (km) Brightness Sun altitude
Exits shadow 20:55:19 17° 225° (SW) 1,585 3.6 -24.9°
Maximum altitude 20:57:29 25° 266° (W) 1,287 3.5 -25.1°
Drops below altitude 10° 21:01:09 10° 322° (NW) 2,035 5.2 -25.5°
Sets 21:03:43 0° 336° (NNW) 2,951 6.2 -25.8°
